Regional Weather Roundup
Issued by NWS

Home | Current Version | Previous Version | Graphics & Text | Print | Product List | Glossary On
Versions: 1 2 3 4 5 6 7 8 9 10 11 12 13 14 15 16 17 18 19 20 21 22 23 24 25 26 27 28 29 30 31 32 33 34 35 36 37 38 39 40 41 42 43 44 45 46 47 48 49 50
121
ASUS43 KLSX 291010
RWRMO

WEATHER SUMMARY FOR MISSOURI
NATIONAL WEATHER SERVICE SPRINGFIELD MO
500 AM CDT FRI APR 29 2016

NOTE: "FAIR" INDICATES FEW OR NO CLOUDS BELOW 12,000 FEET WITH NO
       SIGNIFICANT WEATHER AND/OR OBSTRUCTIONS TO VISIBILITY.
       CURRENT SKY AND/OR WEATHER CONDITIONS ARE NOT AVAILABLE FOR
       CHILLICOTHE AND FARMINGTON.

MOZ001>031-035>038-043-044-053-054-291100-
...NORTHERN AND WESTERN MISSOURI...

CITY           SKY/WX    TMP DP  RH WIND       PRES   REMARKS
KANSAS CTY INT CLOUDY    48  43  82 NE8       30.04S
KANSAS C DTWN  CLOUDY    51  44  77 NE9       30.03F
LEE`S SUMMIT   MOCLDY    49  44  83 NE8       30.04F
ST JOSEPH      CLOUDY    47  41  80 NE15      30.03F
CHILLICOTHE      N/A     50  45  83 N12       30.04F
KIRKSVILLE     CLOUDY    47  43  86 NW5       30.10S

$$
MOZ066>068-077>081-088>096-101>105-291100-
...SOUTHWEST MISSOURI...

CITY           SKY/WX    TMP DP  RH WIND       PRES   REMARKS
SPRINGFIELD    PTCLDY    53  46  77 NE12      29.99F
JOPLIN         CLOUDY    52  47  83 NE10      29.97R

$$
MOZ032>034-039>042-045>050-055>058-069>072-291100-
...CENTRAL MISSOURI...

CITY           SKY/WX    TMP DP  RH WIND       PRES   REMARKS
COLUMBIA       CLOUDY    50  47  89 N8        30.05F
JEFFERSON CITY MOCLDY    51  47  86 N3        30.06F
ROLLA          CLOUDY    51  47  86 N8        30.04F
SEDALIA        CLOUDY    50  46  86 NE7       30.06F
WHITEMAN AFB   MOCLDY    49  49  99 NE9       30.04F
WARRENSBURG    CLOUDY    48  45  87 N7        30.05F
OSAGE BEACH    CLOUDY    50  39  66 NE5       30.04F

$$
MOZ051-052-059>065-291100-
...EAST CENTRAL MISSOURI...

CITY           SKY/WX    TMP DP  RH WIND       PRES   REMARKS
ST LOUIS INTL  CLOUDY    56  49  77 CALM      30.07S
SPIRIT OF STL  CLOUDY    53  50  89 CALM      30.06S
ST CHARLES     CLOUDY    53  51  93 SW3       30.06S

$$
MOZ072>076-082>087-097>100-106>115-291100-
...SOUTH CENTRAL AND SOUTHEAST MISSOURI...

CITY           SKY/WX    TMP DP  RH WIND       PRES   REMARKS
CAPE GIRARDEAU CLOUDY    56  51  84 NE7       30.03R
FARMINGTON     MOCLDY    53  48  83 N3        30.04F
POPLAR BLUFF   CLEAR     57  51  80 NE9       29.99F
WEST PLAINS    CLOUDY    53  47  79 NE9       29.99S

$$




USA.gov is the U.S. government's official web portal to all federal, state and local government web resources and services.